Preview of NWS' New Version of Forecast
This preview is not operational and should not be used for support decisions.

Regional Weather Roundup (RWR)

Issued by Gray - Portland, ME (GYX)

                            
000
ASUS41 KGYX 210610
RWRGYX
WEATHER ROUNDUP FOR MAINE AND NEW HAMPSHIRE
NATIONAL WEATHER SERVICE GRAY ME
100 AM EST MON JAN 21 2019

MEZ002-005-006-010-012-015-018-020-021-024-026-027-029-210700-
MAINE
  
CITY           SKY/WX    TMP DP  RH WIND       PRES   REMARKS
PORTLAND       CLOUDY    10  -3  55 NW14G31   29.45R WCI  -6          
6HR MIN TEMP:  10; 6HR MAX TEMP:  19; 6HR PCP: TRACE;                

SANFORD        CLOUDY     3  -6  66 W10G20    29.46R WCI -12          
BAR HARBOR     CLOUDY    13   9  84 NW13G20   29.28R WCI  -2          
WISCASSET      CLOUDY    10  -2  58 VRB6G18   29.41R                  
6HR MIN TEMP:  10; 6HR MAX TEMP:  14; 6HR PCP:  0.01;                

ROCKLAND       CLOUDY    12   3  67 NW15G24   29.33R WCI  -4          
FRYEBURG       FAIR       1  -4  79 SW5       29.43R                  
6HR MIN TEMP:   1; 6HR MAX TEMP:  16;                                

LEWISTONAUBURN MOCLDY     6  -5  60 NW15G21   29.42R WCI -12          
AUGUSTA        CLOUDY    10  -1  61 NW10      29.38R WCI  -4          
6HR MIN TEMP:   8; 6HR MAX TEMP:  12; 6HR PCP: TRACE;                

WATERVILLE     CLOUDY    11   1  64 MISG      29.35                   
BANGOR         CLOUDY    12   4  70 NW14      29.30F WCI  -3          
6HR MIN TEMP:  10; 6HR MAX TEMP:  13;                                

GREENVILLE       N/A      5  -2  72 NW20G31   29.24S WCI -15          
6HR MIN TEMP:   1; 6HR MAX TEMP:   6; 6HR PCP:  0.05;                

MILLINOCKET    CLOUDY    13   3  64 N15G23    29.31R WCI  -3          
6HR MIN TEMP:   7; 6HR MAX TEMP:  14; 6HR PCP: TRACE;                

HOULTON        LGT SNOW  11   6  81 N20G29    29.24S WCI  -7          
6HR MIN TEMP:  11; 6HR MAX TEMP:  16; 6HR PCP:  0.05;                

PRESQUE ISLE   LGT SNOW  10   6  84 N20G28    29.32F FOG     WCI  -9  
6HR MIN TEMP:  10; 6HR MAX TEMP:  13; 6HR PCP: TRACE;                

FRENCHVILLE    LGT SNOW  10   4  76 N17       29.32F VSB 1   WCI  -8  
6HR MIN TEMP:   9; 6HR MAX TEMP:  13; 6HR PCP:  0.04;                

CARIBOU        LGT SNOW  10   4  76 N21       29.31R WCI  -9          
6HR MIN TEMP:  10; 6HR MAX TEMP:  14; 6HR PCP:  0.19;                

$$

NHZ002-005-008-009-011-012-014-210700-
NEW HAMPSHIRE
  
CITY           SKY/WX    TMP DP  RH WIND       PRES   REMARKS
PORTSMOUTH     CLOUDY     5  -8  55 W14G22    29.47R WCI -13          
ROCHESTER      CLOUDY     3  -8  60 NW10G18   29.45R WCI -12          
6HR MIN TEMP:   3; 6HR MAX TEMP:  20;                                

NASHUA         FAIR       3  -8  60 NW24G33   29.56R WCI -20          
MANCHESTER     FAIR       4 -10  52 NW16G38   29.53S WCI -15          
6HR MIN TEMP:   4; 6HR MAX TEMP:  22;                                

CONCORD        FAIR       0 -10  63 NW20G32   29.53R WCI -22          
6HR MIN TEMP:   0; 6HR MAX TEMP:  18;                                

LACONIA        FAIR      -2 -11  65 W15       29.49R WCI -22          
PLYMOUTH       FAIR      -3 -12  64 W14G24    29.55R WCI -22          
BERLIN         CLOUDY    -6 -13  71 VRB5      29.52R                  
6HR MIN TEMP:  -7; 6HR MAX TEMP:   7; 6HR PCP:  0.01;                

WHITEFIELD     CLOUDY    -5 -12  72 NW5       29.59R HAZE             
6HR MIN TEMP:  -5; 6HR MAX TEMP:   4; 6HR PCP: TRACE;                

JAFFREY        FAIR       0 -10  63 NW9G22    29.52R                  
6HR MIN TEMP:   0; 6HR MAX TEMP:  15;                                

LEBANON        FAIR       0 -13  54 N8G21     29.61F                  
6HR MIN TEMP:   0; 6HR MAX TEMP:   7;                                

MT WASHINGTON  PTCLDY    -8  -9  92 NW17G26     N/A  WCI -31          
6HR MIN TEMP:  -8; 6HR MAX TEMP:   7; 6HR PCP: TRACE;                

$$

VTZ005-007-008-210700-
VERMONT
  
CITY           SKY/WX    TMP DP  RH WIND       PRES   REMARKS
ST JOHNSBURY     N/A     -5 -11  75 MISG      29.63R                  
MONTPELIER     CLOUDY    -6 -10  83 NW13G21   29.64R FOG     WCI -25  
BURLINGTON     LGT SNOW  -2  -9  72 N15       29.78R WCI -22          
$$

MAZ007-012-024-CTZ003-RIZ002-NYZ038-NYZ072-210700-
SOUTHERN NEW ENGLAND AND NY
  
CITY           SKY/WX    TMP DP  RH WIND       PRES   REMARKS
BOSTON         FAIR       9  -5  53 W18G29    29.55R WCI -10          
WORCESTER      FAIR       0 -10  63 W22G30    29.51R WCI -23          
NANTUCKET      FAIR      17   6  62 NW20G29   29.49R WCI   1          
PROVIDENCE     FAIR       7  -2  66 NW18G26   29.61R WCI -12          
HARTFORD       FAIR       2  -9  60 NW17G29   29.70R WCI -18          
ALBANY         CLOUDY    -1 -14  53 W20G35    29.81S WCI -23          
NEW YORK CITY  FAIR      15   3  59 NW26G41   29.80R WCI  -4          
$$

ANZ081-ANZ082-ANZ150-NHZ014-MEZ023>029-210700-
COASTAL MARINE OBSERVATIONS
  
STATION/POSITION TIME  TEMP    WIND        PRES    WAVE
                       AIR SEA DIR/SP/G            HT/PER
                 (UTC) (F)     (DEG/KT/KT) (MB)    (FT/S)
MOUNT DESERT ROC 0600   18     300/ 26/ 30  990.4R
MATINICUS ROCK   0500   17     310/ 23/ 27  991.4R
ISLE OF SHOALS   0500    7     300/ 31/ 36  996.4R
JEFFREYS LEDGE   0538      41                N/A    10/11
CASHES LEDGE BUO 0550   20 40               993.7R  13/11
$$

.............KEY..............
   WCI - WIND CHILL
   TC  - TEMPERATURE IN CELSIUS
   VSB - VISIBILITY IN MILES
   HX  - HEAT INDEX
   FAIR- INDICATES FEW OR NO CLOUDS BELOW 12,000 FT, WITH NO 
         SIGNIFICANT WEATHER AND/OR OBSTRUCTIONS TO VISIBILITY.